Date String (YYYY-MM-DD hh:mm:ss) UTC,Instrument flags,Ambient pressure (hPa),Sample flow (lpm),Bypass flow (lpm),Sample temperature (°C),Ambient temperature (°C),ASC tube jacket temperature (°C),LED temperature (°C),Box temperature (°C),Sample RH (%),Span deviation,Mass concentration (μg/m³),Mass concentration (μg/m³),Mass concentration (μg/m³)
DateTimeUTC,F1_M11,P_M11,Q1_M11,Q2_M11,T1_M11,T2_M11,T3_M11,T4_M11,T5_M11,U1_M11,ZSPAN_M11,X0_M11,X2_M11,X1_M11
2022-06-06 20:00:00,,0821.8,5.00,0.00,29.1,27.1,00.0,37.9,30.9,23.9,0000.0,0010.80,0003.93,0002.41
2022-06-06 20:01:00,,0821.9,5.00,0.00,29.1,27.3,00.0,37.9,30.9,22.9,0000.0,0012.26,0003.96,0002.45
2022-06-06 20:02:00,,0821.8,5.01,0.00,29.1,27.5,00.0,37.9,31.0,22.9,0000.0,0012.45,0004.05,0002.51
2022-06-06 20:03:00,,0821.8,5.00,0.00,29.1,27.7,00.0,37.9,31.0,23.7,0000.0,0011.86,0004.05,0002.54
2022-06-06 20:04:00,,0821.8,5.00,0.00,29.1,27.8,00.0,38.0,31.1,23.2,0000.0,0011.81,0004.07,0002.56
2022-06-06 20:05:00,,0821.9,4.99,0.00,29.2,28.0,00.0,38.0,31.1,24.3,0000.0,0012.10,0004.13,0002.60
2022-06-06 20:06:00,,0821.9,5.00,0.00,29.2,28.1,00.0,38.0,31.2,24.4,0000.0,0012.02,0004.15,0002.61
2022-06-06 20:07:00,,0821.8,5.01,0.00,29.2,28.2,00.0,38.0,31.2,24.5,0000.0,0012.76,0004.16,0002.60
2022-06-06 20:08:00,,0821.8,4.99,0.00,29.3,28.3,00.0,38.0,31.3,23.5,0000.0,0013.56,0004.20,0002.61
2022-06-06 20:09:00,,0821.9,4.99,0.00,29.3,28.4,00.0,38.0,31.3,23.9,0000.0,0014.11,0004.21,0002.63
2022-06-06 20:10:00,,0821.8,5.00,0.00,29.3,28.5,00.0,38.1,31.3,24.3,0000.0,0014.38,0004.18,0002.63
2022-06-06 20:11:00,,0821.8,5.01,0.00,29.4,28.6,00.0,38.1,31.4,24.7,0000.0,0014.21,0004.13,0002.62
2022-06-06 20:12:00,,0821.8,5.00,0.00,29.4,28.3,00.0,38.1,31.3,23.8,0000.0,0013.34,0004.11,0002.64
2022-06-06 20:13:00,,0821.8,5.00,0.00,29.3,27.3,00.0,38.0,31.1,24.7,0000.0,0013.55,0004.14,0002.65
2022-06-06 20:14:00,,0821.8,4.99,0.00,29.3,26.9,00.0,38.0,31.0,24.5,0000.0,0013.36,0004.17,0002.67
2022-06-06 20:15:00,,0821.8,5.01,0.00,29.2,26.8,00.0,38.0,30.9,24.4,0000.0,0013.35,0004.18,0002.67
2022-06-06 20:16:00,,0821.8,4.99,0.00,29.1,26.9,00.0,37.9,30.9,24.5,0000.0,0013.41,0004.15,0002.67
2022-06-06 20:17:00,,0821.8,5.01,0.00,29.1,27.1,00.0,37.9,30.9,26.4,0000.0,0013.81,0004.19,0002.67
2022-06-06 20:18:00,,0821.8,5.01,0.00,29.1,27.3,00.0,37.9,30.9,26.9,0000.0,0013.49,0004.19,0002.69
2022-06-06 20:19:00,,0822.0,4.99,0.00,29.1,27.4,00.0,37.9,31.0,25.9,0000.0,0012.41,0004.18,0002.71
2022-06-06 20:20:00,,0821.9,5.00,0.00,29.1,27.6,00.0,37.9,31.0,25.5,0000.0,0012.10,0004.16,0002.75
2022-06-06 20:21:00,,0821.9,5.01,0.00,29.1,27.8,00.0,38.0,31.1,26.6,0000.0,0011.84,0004.17,0002.78
2022-06-06 20:22:00,,0822.0,5.00,0.00,29.1,27.9,00.0,38.0,31.1,25.9,0000.0,0012.13,0004.21,0002.83
2022-06-06 20:23:00,,0822.0,5.00,0.00,29.2,28.0,00.0,38.0,31.1,25.8,0000.0,0012.15,0004.31,0002.90
2022-06-06 20:24:00,,0822.0,5.00,0.00,29.2,28.2,00.0,38.0,31.2,25.4,0000.0,0011.69,0004.32,0002.97
2022-06-06 20:25:00,,0822.0,5.00,0.00,29.2,28.3,00.0,38.0,31.2,25.7,0000.0,0011.84,0004.36,0003.06
2022-06-06 20:26:00,,0822.1,5.02,0.00,29.3,28.3,00.0,38.0,31.3,26.3,0000.0,0012.27,0004.44,0003.13
2022-06-06 20:27:00,,0822.1,5.01,0.00,29.3,28.4,00.0,38.0,31.3,26.4,0000.0,0012.26,0004.50,0003.18
2022-06-06 20:28:00,,0822.1,4.99,0.00,29.3,28.5,00.0,38.1,31.3,26.1,0000.0,0011.98,0004.58,0003.25
2022-06-06 20:29:00,,0822.0,4.99,0.00,29.4,28.5,00.0,38.1,31.4,25.6,0000.0,0012.08,0004.66,0003.31
2022-06-06 20:30:00,,0822.0,5.02,0.00,29.3,27.8,00.0,38.0,31.2,26.0,0000.0,0012.43,0004.68,0003.37
2022-06-06 20:31:00,,0821.9,4.99,0.00,29.2,27.0,00.0,38.0,31.0,26.2,0000.0,0013.00,0004.77,0003.41
2022-06-06 20:32:00,,0821.9,5.00,0.00,29.2,26.7,00.0,38.0,30.8,25.3,0000.0,0012.75,0004.87,0003.44
2022-06-06 20:33:00,,0821.8,5.00,0.00,29.1,26.7,00.0,37.9,30.8,25.1,0000.0,0012.92,0004.92,0003.47
2022-06-06 20:34:00,,0821.8,5.00,0.00,29.0,26.8,00.0,37.9,30.8,25.5,0000.0,0013.05,0004.86,0003.46
2022-06-06 20:35:00,,0821.7,5.00,0.00,29.0,27.0,00.0,37.9,30.8,25.7,0000.0,0013.31,0004.87,0003.44
2022-06-06 20:36:00,,0821.6,4.99,0.00,29.0,27.2,00.0,37.9,30.9,26.5,0000.0,0013.67,0004.93,0003.41
2022-06-06 20:37:00,,0821.7,4.99,0.00,29.0,27.4,00.0,37.9,30.9,26.5,0000.0,0013.46,0004.90,0003.39
2022-06-06 20:38:00,,0821.7,5.01,0.00,29.0,27.5,00.0,37.9,30.9,26.8,0000.0,0013.44,0004.90,0003.38
2022-06-06 20:39:00,,0821.6,5.01,0.00,29.0,27.7,00.0,37.9,31.0,26.7,0000.0,0013.49,0004.82,0003.36
2022-06-06 20:40:00,,0821.5,4.99,0.00,29.1,27.8,00.0,37.9,31.0,27.9,0000.0,0014.18,0004.77,0003.34
2022-06-06 20:41:00,,0821.5,5.00,0.00,29.1,27.9,00.0,37.9,31.0,28.3,0000.0,0014.83,0004.77,0003.33
2022-06-06 20:42:00,,0821.5,5.00,0.00,29.1,28.0,00.0,37.9,31.1,27.8,0000.0,0014.38,0004.74,0003.31
2022-06-06 20:43:00,,0821.5,5.00,0.00,29.1,28.1,00.0,37.9,31.1,28.4,0000.0,0014.42,0004.73,0003.32
2022-06-06 20:44:00,,0821.5,5.00,0.00,29.2,28.2,00.0,38.0,31.2,27.8,0000.0,0014.09,0004.72,0003.32
2022-06-06 20:45:00,,0821.4,5.00,0.00,29.2,28.3,00.0,38.0,31.2,26.8,0000.0,0013.76,0004.76,0003.35
2022-06-06 20:46:00,,0821.4,5.00,0.00,29.2,28.4,00.0,38.0,31.3,27.1,0000.0,0015.04,0004.78,0003.38
2022-06-06 20:47:00,,0821.4,4.98,0.00,29.3,28.5,00.0,38.0,31.3,26.5,0000.0,0014.96,0004.76,0003.42
2022-06-06 20:48:00,,0821.4,4.99,0.00,29.3,28.5,00.0,38.1,31.3,25.0,0000.0,0014.99,0004.76,0003.46
2022-06-06 20:49:00,,0821.4,4.99,0.00,29.4,28.6,00.0,38.1,31.4,26.9,0000.0,0014.99,0004.77,0003.49
2022-06-06 20:50:00,,0821.4,5.00,0.00,29.4,28.7,00.0,38.1,31.4,25.8,0000.0,0015.32,0004.79,0003.50
2022-06-06 20:51:00,,0821.3,5.02,0.00,29.4,28.2,00.0,38.1,31.3,24.6,0000.0,0014.94,0004.79,0003.51
2022-06-06 20:52:00,,0821.3,5.00,0.00,29.3,27.3,00.0,38.0,31.1,24.2,0000.0,0014.41,0004.88,0003.54
2022-06-06 20:53:00,,0821.3,5.00,0.00,29.3,26.9,00.0,38.0,31.0,24.3,0000.0,0014.54,0004.92,0003.57
2022-06-06 20:54:00,,0821.2,5.00,0.00,29.2,26.8,00.0,38.0,30.9,24.6,0000.0,0014.43,0004.91,0003.56
2022-06-06 20:55:00,,0821.2,5.01,0.00,29.1,26.9,00.0,38.0,30.9,25.0,0000.0,0015.48,0004.93,0003.54
2022-06-06 20:56:00,,0821.1,5.00,0.00,29.1,27.1,00.0,38.0,30.9,25.6,0000.0,0016.49,0004.93,0003.53
2022-06-06 20:57:00,,0821.1,5.00,0.00,29.1,27.3,00.0,38.0,30.9,24.9,0000.0,0015.04,0004.92,0003.50
2022-06-06 20:58:00,,0821.1,4.99,0.00,29.1,27.4,00.0,38.0,31.0,21.8,0000.0,0014.36,0004.89,0003.45
2022-06-06 20:59:00,,0821.1,5.01,0.00,29.1,27.6,00.0,38.0,31.0,21.5,0000.0,0014.19,0004.87,0003.41
